Погода в Ныде

Погода в Ныде : погода сейчас, прогноз погоды и архив. Всё, что Вы хотите узнать о погоде в Ныде!

Хотите узнать прогноз погоды в Ныде? Тогда Вам сюда: Погода в Ныде

Поиск расширенной информации на нашем сайте:

Другие новости

Новости СМИ2

Главная страница сайта

Новости сайта

03.07.2017

Напоминаем, что на нашем специализированном сайте Метеоцентр.Азия вы можете получить высокодетализированные автоматические прогнозы погоды по пунктам России, СНГ и мира в авиационном формате (включающие направление и скорость ветра, видимость, явления погоды, количество и форму облачности, нижнюю и верхнюю границу облачности).


Погода в Ныде - сегодня

Время (UTC), дата Ветер
(°,м/с) 
Видим.   Явления Облачность Т
(°С)
Тd
(°С)
f(%) Тe
(°С)
Pmin
(гПа)
dP
(гПа)
Po
(мм)
O2
(г/м3)
Тmin Tmax R s Состояние
почвы
21 21.11.17 090 (В) 4000 м  слаб. снег  10/0 средняя 
[As trans]
-17 -19.5 81 -22  1023.1  2.3  767  331           
00 22.11.17 070 (В) 4000 м  слаб. снег  10/10 300 м 
[Ns]
-17.4 -19.8 82 -21  1025  1.9  768  332           
03 22.11.17 090 (В) 4000 м  слаб. снег  10/10 300 м 
[Ns]
-17.8 -20.2 81 -23  1025.4  0.4  768  333  -1.8    0.7  18  неравномерный
сухой снег
100% 
06 22.11.17 100 (В) 4000 м  слаб. снег  10/10 300 м 
[Ns]
-19.4 -21.9 81 -26  1026.2  0.8  769  335  -19.4         
09 22.11.17 090 (В) 4000 м  слаб. снег  10/10 300 м 
[Sc]
-19.7 -22.4 79 -25  1027.4  1.2  770  336           
12 22.11.17 030 (СВ) 10 км  {снег}  9/9 300 м 
[Sc]
-20 -23 77 -26  1027.2  -0.2  770  336           
15 22.11.17 080 (В) 4000 м  слаб. снег  10/0 средняя 
[As op]
-20 -23.1 76 -25  1026.6  -0.6  769  336    -17.8  0.2     
18 22.11.17 070 (В) 10 км  {снег}  9/8 300 м средняя 
[Sc|Ac trans]
-19.6 -22.8 76 -25  1026.2  -0.4  769  335           
21 22.11.17 070 (В) 10 км    4/4 600 м 
[Sc]
-18.9 -22 76 -24  1026.2  769  335           
00 23.11.17 080 (В) 10 км    8/8 300 м 
[Sc]
-17.5 -20.5 77 -23  1025.9  -0.3  769  333           
03 23.11.17 070 (В) 4000 м  слаб. снег  10/10 300 м 
[Sc]
-16.2 -19 79 -22  1025.7  -0.2  769  331  -20.1    0.4  18  неравномерный
сухой снег
100% 
06 23.11.17 080 (В) 10 км  {снег}  10/10 300 м 
[Sc]
-16.5 -19.4 78 -22  1026  0.3  769  331           
09 23.11.17 070 (В) 4000 м  слаб. снег  10/10 300 м 
[Sc]
-16.7 -19.5 79 -23  1025.7  -0.3  769  331           
12 23.11.17 080 (В) 7-10{11}  4000 м  слаб. снег  10/0 средняя 
[As op]
-18.3 -21.2 78 -26  1024.7  -1  768  333           
15 23.11.17 090 (В) 9-11{12}  4000 м  слаб. снег  10/0 средняя 
[As trans]
-18.2 -21.2 77 -27  1023.9  -0.8  767  333    -16.2     
18 23.11.17 100 (В) 10-13{13}  4000 м  слаб. снег  10/0 средняя 
[As trans]
-17.4 -20.4 77 -26  1021  -2.9  765  331           
21 23.11.17 100 (В) 9-12{14}  4000 м  слаб. снег  10/0 средняя 
[As trans]
-16.8 -19.5 80 -25  1018.8  -2.2  763  329           
00 24.11.17 100 (В) 9-11{14}  4000 м  слаб. снег  10/10 300 м 
[Sc]
-16.4 -18.8 82 -25  1015.8  -3  761  328           
03 24.11.17 110 (В) 9-12{13}  2000 м  снег  10/10 300 м 
[Ns]
-15.2 -17.7 81 -23  1011.4  -4.4  758  325  -18.3    26  неравномерный
сухой снег
100% 
06 24.11.17 110 (В) 10-12{13}  2000 м  снег  10/10 300 м 
[Ns]
-14.7 -17.2 81 -23  1007.4  -4  755  323           
09 24.11.17 110 (В) 8-11{13}  2000 м  снег  10/10 300 м 
[Ns]
-14.4 -16.8 82 -22  1001.9  -5.4  751  321           
12 24.11.17 130 (ЮВ) 4{13}  4000 м  слаб. снег  10/10 300 м 
[Ns]
-13.1 -15.3 84 -18  997.1  -4.8  747  318           
15 24.11.17 270 (З) 10-13{13}  2000 м  снег  10/10 300 м 
[Ns]
-12.9 -15.1 84 -21  996  -1.1  746  317    -11.4     
18 24.11.17 270 (З) 10-13{15}  4000 м  метель{снег}  10/8 300 м 
[Sc]
-16.8 -19.3 81 -26  997.3  1.2  747  322           
21 24.11.17 300 (СЗ) 8{13}  10 км  позёмок  9/9 300 м 
[Sc]
-16.7 -19.1 82 -25  999  1.7  749  323           
Время (UTC), дата Ветер
(°,м/с) 
Видим.   Явления Облачность Т
(°С)
Тd
(°С)
f(%) Тe
(°С)
Pmin
(гПа)
dP
(гПа)
Po
(мм)
O2
(г/м3)
Тmin Tmax R s Состояние
почвы

Для получения пояснительной информации подведите курсор к названию столбца.

ПОГОДА в Ныде - архив

Всё, что Вы хотите узнать о погоде в Ныде - удобно и подробно!

Выберите нужную дату (начиная с 1 января 2015* года) и нажмите кнопку "Найти".
Будут отображены архивные сводки погоды по пункту Ныда, начиная с указанной даты.


Отображать данные в формате CSV (для использования в таблицах Excel)


Внимание! Наш архив погоды предназначен исключительно для личного некоммерческого использования в познавательных целях. Если Вам необходимы официальные справки о состоянии погоды (для производственных, юридических, коммерческих и т.п. целей), обращайтесь в органы Росгидромета.

*Примечание: данная дата относится к архиву по метеостанциям СССР (Россия, СНГ, Балтия).
Архив по метеостанциям Зарубежной Европы и Азии (кроме Китая) хранится 10 дней, по другим регионам земного шара (Китай, Африка, Америка, Австралия, Океания) - 1 день.

Ныда - район местоположения метеостанции


Название, широта, долгота, высота метеостанции:
Ныда 66.7°ш. 72.9°д. 10 м над ур. моря [Российская Федерация]

Дополнительная информация

В oтличие oт бoльшинства пoгoдных сайтoв мы публикуем пoдрoбную метеoинфoрмацию в детальнoм прoфессиoнальнoм фoрмате.

Характеристики температуры и влажнoсти вoздуха измеряются на высoте 2 м в тени вдали oт зданий и деревьев.
Скoрoсть ветра измеряется на высoте 10 м (на урoвне рoста челoвека скoрoсть ветра ниже в 1.5-2 раза). Если метеoстанция нахoдится в гoрoде или в лесу, тo скoрoсть ветра занижена на 2-4 м/с пo сравнению с oткрытым местoм. Скoрoсть ветра над акватoриями крупных рек и oзёр, а также на вершинах хoлмoв на 2-5 м/с выше, чем в oбычных услoвиях.
Атмoсфернoе давление в разных тoчках местнoсти мoжет значительнo oтличаться oт давления на метеoстанции, в зависимoсти oт услoвий рельефа (при пoдъёме на 10 м давление пoнижается примернo на 1 мм рт.ст.).